| time (UTC) | temp C | wind direction | speed KPH | gust KPH | rain 1hr cm | rain 24hr cm | rain mn cm | humidity % | barometer mb |
| 20260506104005 | 12 | 252 | 8.0 | 14.5 | 0.00 | 0.00 | 0.00 | 78 | 1007.7 |
| 20260506103501 | 12 | 334 | 4.8 | 16.1 | 0.00 | 0.00 | 0.00 | 78 | 1007.7 |
| 20260506102958 | 13 | 263 | 8.0 | 12.9 | 0.00 | 0.00 | 0.00 | 78 | 1007.4 |
| 20260506102456 | 13 | 10 | 6.4 | 11.3 | 0.00 | 0.00 | 0.00 | 77 | 1007.4 |
| 20260506101954 | 13 | 349 | 16.1 | 20.9 | 0.00 | 0.00 | 0.00 | 77 | 1007.2 |
| 20260506101450 | 13 | 49 | 6.4 | 9.7 | 0.00 | 0.00 | 0.00 | 77 | 1007.2 |
| 20260506100947 | 13 | 355 | 11.3 | 16.1 | 0.00 | 0.00 | 0.00 | 77 | 1007.0 |
| 20260506100446 | 13 | 68 | 4.8 | 12.9 | 0.00 | 0.00 | 0.00 | 77 | 1006.9 |
| 20260506095943 | 13 | 6 | 6.4 | 9.7 | 0.00 | 0.00 | 0.00 | 77 | 1007.0 |
| 20260506095442 | 13 | 350 | 4.8 | 12.9 | 0.00 | 0.00 | 0.00 | 77 | 1006.8 |
| 20260506094937 | 13 | 67 | 1.6 | 9.7 | 0.00 | 0.00 | 0.00 | 77 | 1007.0 |
| 20260506094436 | 13 | 13 | 3.2 | 16.1 | 0.00 | 0.00 | 0.00 | 77 | 1007.0 |
| 20260506093933 | 13 | 106 | 4.8 | 11.3 | 0.00 | 0.00 | 0.00 | 77 | 1006.8 |
| 20260506093431 | 13 | 293 | 8.0 | 11.3 | 0.00 | 0.00 | 0.00 | 77 | 1006.9 |
| 20260506092928 | 13 | 340 | 8.0 | 11.3 | 0.00 | 0.00 | 0.00 | 77 | 1006.9 |
| 20260506092426 | 13 | 11 | 4.8 | 11.3 | 0.00 | 0.00 | 0.00 | 78 | 1006.6 |
| 20260506091922 | 13 | 297 | 3.2 | 8.0 | 0.00 | 0.00 | 0.00 | 78 | 1006.7 |
| 20260506091421 | 13 | 305 | 11.3 | 12.9 | 0.00 | 0.00 | 0.00 | 78 | 1006.6 |
| 20260506090918 | 13 | 297 | 8.0 | 9.7 | 0.00 | 0.00 | 0.00 | 78 | 1006.6 |
| 20260506090415 | 14 | 275 | 1.6 | 11.3 | 0.00 | 0.00 | 0.00 | 78 | 1006.5 |
| 20260506085912 | 14 | 13 | 3.2 | 8.0 | 0.00 | 0.00 | 0.00 | 78 | 1006.5 |
| 20260506085409 | 14 | 342 | 8.0 | 14.5 | 0.00 | 0.00 | 0.00 | 78 | 1006.5 |
| 20260506084905 | 14 | 305 | 6.4 | 12.9 | 0.00 | 0.00 | 0.00 | 78 | 1006.4 |
| 20260506084402 | 14 | 308 | 1.6 | 4.8 | 0.00 | 0.00 | 0.00 | 78 | 1006.2 |
| 20260506083858 | 14 | 24 | 1.6 | 8.0 | 0.00 | 0.00 | 0.00 | 77 | 1006.3 |
| 20260506083356 | 14 | 19 | 1.6 | 3.2 | 0.00 | 0.00 | 0.00 | 78 | 1006.4 |
| 20260506082853 | 14 | 300 | 4.8 | 8.0 | 0.00 | 0.00 | 0.00 | 77 | 1006.3 |
| 20260506082349 | 14 | 32 | 4.8 | 11.3 | 0.00 | 0.00 | 0.00 | 77 | 1006.0 |
| 20260506081845 | 14 | 330 | 6.4 | 9.7 | 0.00 | 0.00 | 0.00 | 77 | 1006.4 |
| 20260506081344 | 14 | 337 | 1.6 | 3.2 | 0.00 | 0.00 | 0.00 | 78 | 1005.9 |
| 20260506080841 | 14 | 69 | 4.8 | 8.0 | 0.00 | 0.00 | 0.00 | 78 | 1005.8 |
| 20260506080338 | 14 | 34 | 4.8 | 9.7 | 0.00 | 0.00 | 0.00 | 78 | 1005.9 |
| 20260506073322 | 14 | 32 | 6.4 | 11.3 | 0.00 | 0.00 | 0.00 | 80 | 1005.9 |
| 20260506072818 | 14 | 4 | 3.2 | 9.7 | 0.00 | 0.00 | 0.00 | 80 | 1006.0 |
| 20260506072316 | 14 | 35 | 4.8 | 9.7 | 0.00 | 0.00 | 0.00 | 79 | 1006.2 |
| 20260506071814 | 14 | 331 | 3.2 | 11.3 | 0.00 | 0.00 | 0.00 | 79 | 1006.4 |
| 20260506071312 | 14 | 359 | 6.4 | 14.5 | 0.00 | 0.00 | 0.00 | 79 | 1006.3 |
| 20260506070808 | 15 | 25 | 8.0 | 11.3 | 0.00 | 0.00 | 0.00 | 79 | 1006.3 |
| 20260506070305 | 15 | 2 | 4.8 | 12.9 | 0.00 | 0.00 | 0.00 | 79 | 1006.0 |
| 20260506062242 | 15 | 301 | 4.8 | 9.7 | 0.00 | 0.00 | 0.00 | 79 | 1006.0 |
| 20260506061738 | 15 | 34 | 3.2 | 12.9 | 0.00 | 0.00 | 0.00 | 80 | 1006.0 |
| 20260506061235 | 15 | 15 | 9.7 | 14.5 | 0.00 | 0.00 | 0.00 | 80 | 1006.0 |
| 20260506060734 | 15 | 6 | 8.0 | 17.7 | 0.00 | 0.00 | 0.00 | 80 | 1005.9 |
| 20260506060231 | 15 | 2 | 6.4 | 11.3 | 0.00 | 0.00 | 0.00 | 80 | 1005.9 |
| 20260506051203 | 16 | 323 | 9.7 | 16.1 | 0.00 | 0.00 | 0.00 | 81 | 1005.9 |
| 20260506050701 | 16 | 353 | 4.8 | 9.7 | 0.00 | 0.00 | 0.00 | 81 | 1006.2 |
| 20260506050158 | 16 | 314 | 4.8 | 14.5 | 0.00 | 0.00 | 0.00 | 81 | 1005.7 |
| 20260506044649 | 16 | 5 | 4.8 | 16.1 | 0.00 | 0.00 | 0.00 | 80 | 1005.8 |
| 20260506044146 | 16 | 326 | 4.8 | 9.7 | 0.00 | 0.00 | 0.00 | 80 | 1005.8 |
| 20260506043643 | 17 | 309 | 6.4 | 9.7 | 0.00 | 0.00 | 0.00 | 80 | 1005.8 |
| 20260506043141 | 17 | 19 | 6.4 | 16.1 | 0.00 | 0.00 | 0.00 | 80 | 1005.7 |
| 20260506042640 | 17 | 289 | 6.4 | 17.7 | 0.00 | 0.00 | 0.00 | 80 | 1005.6 |
| 20260506042137 | 17 | 42 | 8.0 | 12.9 | 0.00 | 0.00 | 0.00 | 79 | 1005.5 |
| 20260506041636 | 17 | 340 | 3.2 | 16.1 | 0.00 | 0.00 | 0.00 | 79 | 1005.7 |
| 20260506041132 | 17 | 2 | 4.8 | 11.3 | 0.00 | 0.00 | 0.00 | 80 | 1005.2 |
| 20260506040630 | 17 | 340 | 14.5 | 16.1 | 0.00 | 0.00 | 0.00 | 80 | 1005.1 |
| 20260506040126 | 17 | 243 | 6.4 | 17.7 | 0.00 | 0.00 | 0.00 | 79 | 1005.3 |
| 20260506035623 | 17 | 344 | 8.0 | 12.9 | 0.00 | 0.00 | 0.00 | 80 | 1005.2 |
| 20260506035119 | 17 | 46 | 3.2 | 11.3 | 0.00 | 0.00 | 0.00 | 80 | 1005.4 |
| 20260506034617 | 17 | 42 | 4.8 | 12.9 | 0.00 | 0.00 | 0.00 | 80 | 1005.1 |
| 20260506034114 | 18 | 257 | 8.0 | 17.7 | 0.00 | 0.00 | 0.00 | 80 | 1005.0 |
| 20260506033611 | 18 | 319 | 6.4 | 12.9 | 0.00 | 0.00 | 0.00 | 80 | 1005.0 |
| 20260506033108 | 18 | 333 | 6.4 | 17.7 | 0.00 | 0.00 | 0.00 | 80 | 1004.9 |
| 20260506032606 | 18 | 354 | 9.7 | 12.9 | 0.00 | 0.00 | 0.00 | 79 | 1004.7 |
| 20260506032102 | 18 | 301 | 6.4 | 20.9 | 0.00 | 0.00 | 0.00 | 79 | 1004.8 |
| 20260506031600 | 19 | 346 | 8.0 | 24.1 | 0.00 | 0.00 | 0.00 | 79 | 1004.8 |
| 20260506031056 | 20 | 11 | 6.4 | 14.5 | 0.00 | 0.00 | 0.00 | 78 | 1004.4 |
| 20260506030555 | 20 | 283 | 1.6 | 4.8 | 0.00 | 0.00 | 0.00 | 79 | 1004.5 |
| 20260506030052 | 20 | 294 | 9.7 | 14.5 | 0.00 | 0.00 | 0.00 | 78 | 1004.5 |
| 20260506025549 | 20 | 346 | 3.2 | 12.9 | 0.00 | 0.00 | 0.00 | 78 | 1004.4 |
| 20260506025044 | 20 | 81 | 8.0 | 12.9 | 0.00 | 0.00 | 0.00 | 77 | 1004.1 |
| 20260506024542 | 20 | 13 | 6.4 | 8.0 | 0.00 | 0.00 | 0.00 | 77 | 1004.2 |
| 20260506024038 | 20 | 321 | 14.5 | 22.5 | 0.00 | 0.00 | 0.00 | 77 | 1003.9 |
| 20260506023534 | 20 | 298 | 11.3 | 16.1 | 0.00 | 0.00 | 0.00 | 77 | 1003.6 |
| 20260506023032 | 20 | 14 | 9.7 | 20.9 | 0.00 | 0.00 | 0.00 | 77 | 1003.4 |
| 20260506022529 | 21 | 313 | 6.4 | 12.9 | 0.00 | 0.00 | 0.00 | 77 | 1003.4 |
| 20260506022027 | 21 | 358 | 8.0 | 20.9 | 0.00 | 0.00 | 0.00 | 77 | 1003.3 |
| 20260506021524 | 21 | 326 | 11.3 | 17.7 | 0.00 | 0.00 | 0.00 | 76 | 1003.3 |
| 20260506021021 | 21 | 312 | 6.4 | 12.9 | 0.00 | 0.00 | 0.00 | 76 | 1003.2 |
| 20260506020519 | 22 | 359 | 8.0 | 16.1 | 0.00 | 0.00 | 0.00 | 75 | 1002.7 |
| 20260506020016 | 22 | 40 | 3.2 | 11.3 | 0.00 | 0.00 | 0.00 | 74 | 1002.5 |
| 20260506015513 | 22 | 49 | 1.6 | 12.9 | 0.00 | 0.00 | 0.00 | 73 | 1002.8 |
| 20260506015010 | 22 | 313 | 9.7 | 11.3 | 0.00 | 0.00 | 0.00 | 73 | 1002.9 |
| 20260506014508 | 22 | 326 | 1.6 | 8.0 | 0.00 | 0.00 | 0.00 | 72 | 1002.7 |
| 20260506014003 | 22 | 26 | 4.8 | 9.7 | 0.00 | 0.00 | 0.00 | 72 | 1002.5 |
| 20260506013501 | 22 | 7 | 4.8 | 12.9 | 0.00 | 0.00 | 0.00 | 71 | 1002.5 |
| 20260506012957 | 22 | 351 | 3.2 | 9.7 | 0.00 | 0.00 | 0.00 | 71 | 1002.5 |
| 20260506012454 | 22 | 337 | 6.4 | 8.0 | 0.00 | 0.00 | 0.00 | 70 | 1002.5 |
| 20260506011951 | 22 | 350 | 4.8 | 4.8 | 0.00 | 0.00 | 0.00 | 70 | 1002.7 |
| 20260506011448 | 22 | 1 | 11.3 | 16.1 | 0.00 | 0.00 | 0.00 | 70 | 1002.7 |
| 20260506010945 | 23 | 4 | 1.6 | 12.9 | 0.00 | 0.00 | 0.00 | 70 | 1002.3 |
| 20260506010444 | 23 | 351 | 1.6 | 8.0 | 0.00 | 0.00 | 0.00 | 71 | 1002.2 |
| 20260506005939 | 23 | 299 | 6.4 | 11.3 | 0.00 | 0.00 | 0.00 | 71 | 1002.1 |
| 20260506005438 | 23 | 69 | 3.2 | 9.7 | 0.00 | 0.00 | 0.00 | 71 | 1001.6 |
| 20260506004932 | 23 | 30 | 8.0 | 16.1 | 0.00 | 0.00 | 0.00 | 71 | 1001.6 |
| 20260506004431 | 23 | 335 | 11.3 | 17.7 | 0.00 | 0.00 | 0.00 | 70 | 1001.9 |
| 20260506003926 | 23 | 344 | 8.0 | 12.9 | 0.00 | 0.00 | 0.00 | 69 | 1001.7 |
| 20260506003423 | 23 | 301 | 8.0 | 12.9 | 0.00 | 0.00 | 0.00 | 69 | 1001.8 |
| 20260506002920 | 24 | 353 | 8.0 | 11.3 | 0.00 | 0.00 | 0.00 | 69 | 1001.6 |
| 20260506002416 | 25 | 354 | 9.7 | 14.5 | 0.00 | 0.00 | 0.00 | 69 | 1001.8 |
| 20260506001911 | 25 | 325 | 8.0 | 9.7 | 0.00 | 0.00 | 0.00 | 67 | 1001.8 |
| 20260506001409 | 25 | 294 | 11.3 | 14.5 | 0.00 | 0.00 | 0.00 | 66 | 1001.8 |
| 20260506000906 | 25 | 278 | 3.2 | 12.9 | 0.00 | 0.00 | 0.00 | 66 | 1001.5 |
| 20260506000403 | 25 | 330 | 8.0 | 17.7 | 0.00 | 0.00 | 0.00 | 66 | 1001.5 |
| 20260505235900 | 25 | 9 | 12.9 | 27.4 | 0.00 | 0.00 | 0.00 | 66 | 1001.0 |
| 20260505235358 | 26 | 290 | 4.8 | 9.7 | 0.00 | 0.00 | 0.00 | 65 | 1001.1 |
| 20260505234854 | 26 | 284 | 9.7 | 14.5 | 0.00 | 0.00 | 0.00 | 65 | 1000.8 |
| 20260505234352 | 26 | 300 | 4.8 | 20.9 | 0.00 | 0.00 | 0.00 | 64 | 1001.0 |
| 20260505233848 | 26 | 341 | 14.5 | 17.7 | 0.00 | 0.00 | 0.00 | 63 | 1001.0 |
| 20260505233346 | 27 | 327 | 11.3 | 17.7 | 0.00 | 0.00 | 0.00 | 62 | 1001.1 |
| 20260505232844 | 27 | 342 | 11.3 | 20.9 | 0.00 | 0.00 | 0.00 | 62 | 1001.0 |
| 20260505232342 | 28 | 317 | 9.7 | 17.7 | 0.00 | 0.00 | 0.00 | 58 | 1000.7 |
| 20260505231838 | 28 | 329 | 8.0 | 14.5 | 0.00 | 0.00 | 0.00 | 55 | 1000.5 |
| 20260505231336 | 28 | 3 | 6.4 | 12.9 | 0.00 | 0.00 | 0.00 | 54 | 1000.6 |
| 20260505230834 | 29 | 287 | 12.9 | 17.7 | 0.00 | 0.00 | 0.00 | 52 | 1000.3 |
| 20260505230330 | 29 | 339 | 8.0 | 12.9 | 0.00 | 0.00 | 0.00 | 51 | 1000.3 |
| 20260505225827 | 30 | 319 | 4.8 | 11.3 | 0.00 | 0.00 | 0.00 | 50 | 1000.1 |
| 20260505225325 | 31 | 3 | 6.4 | 12.9 | 0.00 | 0.00 | 0.00 | 50 | 1000.1 |
| 20260505224819 | 31 | 252 | 4.8 | 8.0 | 0.00 | 0.00 | 0.00 | 54 | 999.9 |
| 20260505224318 | 31 | 186 | 0.0 | 3.2 | 0.00 | 0.00 | 0.00 | 53 | 999.9 |
| 20260505223814 | 31 | 222 | 1.6 | 8.0 | 0.00 | 0.00 | 0.00 | 54 | 1000.1 |
| 20260505223312 | 31 | 187 | 1.6 | 8.0 | 0.00 | 0.00 | 0.00 | 54 | 999.9 |
| 20260505222807 | 31 | 217 | 4.8 | 11.3 | 0.00 | 0.00 | 0.00 | 54 | 999.7 |
| 20260505222305 | 31 | 173 | 3.2 | 4.8 | 0.00 | 0.00 | 0.00 | 54 | 999.7 |
| 20260505221801 | 31 | 191 | 3.2 | 3.2 | 0.00 | 0.00 | 0.00 | 54 | 999.6 |
| 20260505221257 | 31 | 223 | 8.0 | 14.5 | 0.00 | 0.00 | 0.00 | 55 | 999.7 |
| 20260505220754 | 31 | 209 | 4.8 | 11.3 | 0.00 | 0.00 | 0.00 | 55 | 999.5 |
| 20260505220252 | 32 | 166 | 3.2 | 11.3 | 0.00 | 0.00 | 0.00 | 55 | 999.8 |
| 20260505215750 | 31 | 185 | 3.2 | 9.7 | 0.00 | 0.00 | 0.00 | 55 | 999.8 |
| 20260505215247 | 31 | 203 | 3.2 | 4.8 | 0.00 | 0.00 | 0.00 | 55 | 999.8 |
| 20260505214745 | 31 | 0 | 1.6 | 4.8 | 0.00 | 0.00 | 0.00 | 57 | 999.9 |
| 20260505214242 | 31 | 136 | 4.8 | 11.3 | 0.00 | 0.00 | 0.00 | 55 | 999.8 |
| 20260505213739 | 31 | 185 | 6.4 | 8.0 | 0.00 | 0.00 | 0.00 | 56 | 999.6 |
| 20260505213236 | 31 | 175 | 8.0 | 12.9 | 0.00 | 0.00 | 0.00 | 57 | 999.9 |
| 20260505212732 | 31 | 210 | 6.4 | 14.5 | 0.00 | 0.00 | 0.00 | 58 | 999.9 |
| 20260505212230 | 31 | 196 | 4.8 | 8.0 | 0.00 | 0.00 | 0.00 | 60 | 1000.0 |
| 20260505211726 | 31 | 277 | 8.0 | 12.9 | 0.00 | 0.00 | 0.00 | 58 | 1000.1 |
| 20260505211224 | 31 | 205 | 1.6 | 8.0 | 0.00 | 0.00 | 0.00 | 57 | 1000.1 |
| 20260505210720 | 31 | 204 | 1.6 | 12.9 | 0.00 | 0.00 | 0.00 | 60 | 1000.3 |
| 20260505210217 | 31 | 213 | 3.2 | 11.3 | 0.00 | 0.00 | 0.00 | 59 | 1000.0 |
| 20260505205714 | 31 | 217 | 11.3 | 14.5 | 0.00 | 0.00 | 0.00 | 59 | 1000.3 |
| 20260505205213 | 30 | 188 | 8.0 | 16.1 | 0.00 | 0.00 | 0.00 | 61 | 1000.3 |
| 20260505204709 | 30 | 202 | 4.8 | 20.9 | 0.00 | 0.00 | 0.00 | 62 | 1000.2 |
| 20260505204207 | 31 | 136 | 8.0 | 17.7 | 0.00 | 0.00 | 0.00 | 60 | 1000.5 |
| 20260505203704 | 31 | 188 | 3.2 | 11.3 | 0.00 | 0.00 | 0.00 | 61 | 1000.5 |
| 20260505203201 | 30 | 212 | 8.0 | 20.9 | 0.00 | 0.00 | 0.00 | 63 | 1000.7 |
| 20260505202656 | 30 | 99 | 3.2 | 14.5 | 0.00 | 0.00 | 0.00 | 62 | 1000.6 |
| 20260505202153 | 30 | 250 | 3.2 | 20.9 | 0.00 | 0.00 | 0.00 | 62 | 1000.5 |
| 20260505201649 | 30 | 133 | 1.6 | 16.1 | 0.00 | 0.00 | 0.00 | 63 | 1000.6 |
| 20260505201147 | 30 | 31 | 3.2 | 17.7 | 0.00 | 0.00 | 0.00 | 64 | 1000.7 |
| 20260505200645 | 30 | 172 | 14.5 | 24.1 | 0.00 | 0.00 | 0.00 | 63 | 1000.7 |
| 20260505200141 | 30 | 116 | 1.6 | 12.9 | 0.00 | 0.00 | 0.00 | 64 | 1000.8 |
| 20260505195637 | 30 | 142 | 8.0 | 12.9 | 0.00 | 0.00 | 0.00 | 63 | 1001.0 |
| 20260505195135 | 30 | 174 | 11.3 | 17.7 | 0.00 | 0.00 | 0.00 | 64 | 1001.0 |
| 20260505194632 | 30 | 158 | 11.3 | 20.9 | 0.00 | 0.00 | 0.00 | 64 | 1001.1 |
| 20260505194128 | 30 | 161 | 4.8 | 16.1 | 0.00 | 0.00 | 0.00 | 65 | 1000.8 |
| 20260505193625 | 29 | 181 | 11.3 | 17.7 | 0.00 | 0.00 | 0.00 | 65 | 1001.1 |
| 20260505193122 | 29 | 215 | 8.0 | 22.5 | 0.00 | 0.00 | 0.00 | 66 | 1001.1 |
| 20260505192621 | 29 | 183 | 8.0 | 16.1 | 0.00 | 0.00 | 0.00 | 66 | 1001.0 |
| 20260505192117 | 29 | 103 | 6.4 | 16.1 | 0.00 | 0.00 | 0.00 | 66 | 1000.8 |
| 20260505191616 | 28 | 164 | 4.8 | 17.7 | 0.00 | 0.00 | 0.00 | 67 | 1001.1 |
| 20260505191113 | 28 | 146 | 11.3 | 22.5 | 0.00 | 0.00 | 0.00 | 67 | 1001.0 |
| 20260505190609 | 28 | 196 | 14.5 | 17.7 | 0.00 | 0.00 | 0.00 | 67 | 1001.0 |
| 20260505190104 | 29 | 202 | 11.3 | 22.5 | 0.00 | 0.00 | 0.00 | 66 | 1001.1 |
| 20260505185601 | 28 | 209 | 3.2 | 12.9 | 0.00 | 0.00 | 0.00 | 69 | 1001.1 |
| 20260505185057 | 28 | 221 | 4.8 | 17.7 | 0.00 | 0.00 | 0.00 | 69 | 1001.2 |
| 20260505184555 | 27 | 141 | 6.4 | 12.9 | 0.00 | 0.00 | 0.00 | 70 | 1001.2 |
| 20260505184051 | 28 | 208 | 4.8 | 14.5 | 0.00 | 0.00 | 0.00 | 69 | 1001.3 |
| 20260505183548 | 27 | 185 | 8.0 | 14.5 | 0.00 | 0.00 | 0.00 | 70 | 1001.2 |
| 20260505183045 | 27 | 172 | 4.8 | 17.7 | 0.00 | 0.00 | 0.00 | 71 | 1001.1 |
| 20260505182541 | 27 | 149 | 8.0 | 14.5 | 0.00 | 0.00 | 0.00 | 71 | 1001.1 |
| 20260505182038 | 27 | 142 | 4.8 | 17.7 | 0.00 | 0.00 | 0.00 | 72 | 1001.2 |
| 20260505181535 | 27 | 198 | 8.0 | 16.1 | 0.00 | 0.00 | 0.00 | 71 | 1001.2 |
| 20260505181033 | 27 | 186 | 8.0 | 22.5 | 0.00 | 0.00 | 0.00 | 71 | 1001.3 |
| 20260505180528 | 27 | 154 | 12.9 | 17.7 | 0.00 | 0.00 | 0.00 | 72 | 1001.3 |
| 20260505180027 | 27 | 186 | 4.8 | 12.9 | 0.00 | 0.00 | 0.00 | 71 | 1001.1 |
| 20260505175526 | 27 | 154 | 11.3 | 24.1 | 0.00 | 0.00 | 0.00 | 73 | 1001.2 |
| 20260505175024 | 27 | 179 | 9.7 | 24.1 | 0.00 | 0.00 | 0.00 | 72 | 1001.2 |
| 20260505174520 | 27 | 181 | 12.9 | 16.1 | 0.00 | 0.00 | 0.00 | 72 | 1001.1 |
| 20260505174016 | 26 | 187 | 9.7 | 22.5 | 0.00 | 0.00 | 0.00 | 72 | 1001.3 |
| 20260505173513 | 27 | 147 | 8.0 | 16.1 | 0.00 | 0.00 | 0.00 | 73 | 1001.3 |
| 20260505173010 | 27 | 221 | 9.7 | 17.7 | 0.00 | 0.00 | 0.00 | 73 | 1001.3 |
| 20260505172508 | 26 | 198 | 4.8 | 14.5 | 0.00 | 0.00 | 0.00 | 73 | 1001.4 |
| 20260505172003 | 26 | 133 | 3.2 | 11.3 | 0.00 | 0.00 | 0.00 | 74 | 1001.4 |
| 20260505171459 | 26 | 210 | 9.7 | 17.7 | 0.00 | 0.00 | 0.00 | 74 | 1001.6 |
| 20260505170956 | 26 | 228 | 9.7 | 20.9 | 0.00 | 0.00 | 0.00 | 75 | 1001.5 |
| 20260505170452 | 26 | 250 | 14.5 | 22.5 | 0.00 | 0.00 | 0.00 | 75 | 1001.5 |
| 20260505165948 | 26 | 147 | 4.8 | 22.5 | 0.00 | 0.00 | 0.00 | 75 | 1001.5 |
| 20260505165445 | 26 | 169 | 9.7 | 24.1 | 0.00 | 0.00 | 0.00 | 75 | 1001.5 |
| 20260505164940 | 26 | 167 | 6.4 | 24.1 | 0.00 | 0.00 | 0.00 | 75 | 1001.3 |
| 20260505164437 | 26 | 190 | 12.9 | 22.5 | 0.00 | 0.00 | 0.00 | 75 | 1001.5 |
| 20260505163935 | 25 | 141 | 6.4 | 17.7 | 0.00 | 0.00 | 0.00 | 76 | 1001.3 |
| 20260505163433 | 26 | 222 | 8.0 | 24.1 | 0.00 | 0.00 | 0.00 | 76 | 1001.3 |
| 20260505162932 | 25 | 169 | 6.4 | 17.7 | 0.00 | 0.00 | 0.00 | 76 | 1001.3 |
| 20260505162427 | 25 | 259 | 11.3 | 25.7 | 0.00 | 0.00 | 0.00 | 77 | 1001.3 |
| 20260505161924 | 25 | 208 | 12.9 | 20.9 | 0.00 | 0.00 | 0.00 | 77 | 1001.3 |
| 20260505161421 | 25 | 149 | 9.7 | 29.0 | 0.00 | 0.00 | 0.00 | 76 | 1001.4 |
| 20260505160919 | 25 | 207 | 9.7 | 24.1 | 0.00 | 0.00 | 0.00 | 76 | 1001.3 |
| 20260505160416 | 25 | 185 | 11.3 | 24.1 | 0.00 | 0.00 | 0.00 | 76 | 1001.0 |
| 20260505153355 | 25 | 213 | 12.9 | 17.7 | 0.00 | 0.00 | 0.00 | 77 | 1000.8 |
| 20260505152852 | 25 | 175 | 4.8 | 14.5 | 0.00 | 0.00 | 0.00 | 78 | 1001.0 |
| 20260505152344 | 25 | 176 | 11.3 | 27.4 | 0.00 | 0.00 | 0.00 | 78 | 1001.1 |
| 20260505151843 | 25 | 185 | 11.3 | 20.9 | 0.00 | 0.00 | 0.00 | 78 | 1001.2 |
| 20260505151340 | 25 | 164 | 9.7 | 16.1 | 0.00 | 0.00 | 0.00 | 79 | 1001.1 |
| 20260505150837 | 24 | 209 | 9.7 | 25.7 | 0.00 | 0.00 | 0.00 | 80 | 1001.4 |
| 20260505150334 | 24 | 183 | 9.7 | 17.7 | 0.00 | 0.00 | 0.00 | 80 | 1001.1 |
| 20260505140259 | 22 | 187 | 8.0 | 14.5 | 0.00 | 0.00 | 0.00 | 84 | 1001.3 |
| 20260505130223 | 22 | 126 | 8.0 | 29.0 | 0.00 | 0.00 | 0.00 | 86 | 1001.0 |
| 20260505124713 | 22 | 178 | 9.7 | 27.4 | 0.00 | 0.00 | 0.00 | 86 | 1000.6 |
| 20260505124210 | 22 | 123 | 12.9 | 22.5 | 0.00 | 0.00 | 0.00 | 86 | 1000.6 |
| 20260505123705 | 22 | 178 | 8.0 | 16.1 | 0.00 | 0.00 | 0.00 | 86 | 1000.7 |
| 20260505123202 | 22 | 186 | 6.4 | 22.5 | 0.00 | 0.00 | 0.00 | 86 | 1000.4 |
| 20260505122659 | 22 | 219 | 4.8 | 11.3 | 0.00 | 0.00 | 0.00 | 86 | 1000.3 |
| 20260505122156 | 22 | 182 | 4.8 | 9.7 | 0.00 | 0.00 | 0.00 | 86 | 1000.3 |
| 20260505121653 | 22 | 211 | 11.3 | 17.7 | 0.00 | 0.00 | 0.00 | 86 | 1000.3 |
| 20260505121149 | 22 | 142 | 9.7 | 14.5 | 0.00 | 0.00 | 0.00 | 86 | 1000.4 |
| 20260505120645 | 22 | 194 | 12.9 | 14.5 | 0.00 | 0.00 | 0.00 | 86 | 1000.1 |
| 20260505120142 | 22 | 202 | 8.0 | 22.5 | 0.00 | 0.00 | 0.00 | 86 | 1000.3 |
| 20260505115635 | 22 | 202 | 8.0 | 11.3 | 0.00 | 0.00 | 0.00 | 86 | 1000.2 |
| 20260505115134 | 22 | 223 | 4.8 | 12.9 | 0.00 | 0.00 | 0.00 | 86 | 1000.0 |
| 20260505114630 | 22 | 134 | 8.0 | 12.9 | 0.00 | 0.00 | 0.00 | 86 | 1000.2 |
| 20260505114127 | 22 | 206 | 8.0 | 17.7 | 0.00 | 0.00 | 0.00 | 86 | 1000.1 |
| 20260505113623 | 21 | 127 | 9.7 | 17.7 | 0.00 | 0.00 | 0.00 | 86 | 1000.0 |
| 20260505113120 | 21 | 192 | 4.8 | 9.7 | 0.00 | 0.00 | 0.00 | 86 | 1000.2 |
| 20260505112616 | 22 | 148 | 6.4 | 14.5 | 0.00 | 0.00 | 0.00 | 86 | 999.7 |
| 20260505112114 | 21 | 67 | 8.0 | 16.1 | 0.00 | 0.00 | 0.00 | 86 | 1000.0 |
| 20260505111608 | 21 | 138 | 9.7 | 16.1 | 0.00 | 0.00 | 0.00 | 86 | 1000.0 |
| 20260505111104 | 22 | 184 | 6.4 | 9.7 | 0.00 | 0.00 | 0.00 | 86 | 1000.2 |
| 20260505110601 | 22 | 191 | 9.7 | 22.5 | 0.00 | 0.00 | 0.00 | 84 | 1000.0 |